Regional Weather Roundup
Issued by NWS

Home | Current Version | Previous Version | Graphics & Text | Print | Product List | Glossary On
Versions: 1 2 3 4 5 6 7 8 9 10 11 12 13 14 15 16 17 18 19 20 21 22 23 24 25 26 27 28 29 30 31 32 33 34 35 36 37 38 39 40 41 42 43 44 45 46 47 48 49 50
000
ASUS43 KLOT 261709
RWRIL

ILLINOIS REGIONAL WEATHER ROUNDUP
NATIONAL WEATHER SERVICE CHICAGO/ROMEOVILLE IL
1200 PM CDT FRI MAY 26 2017

NOTE: "FAIR" INDICATES FEW OR NO CLOUDS BELOW 12,000 FEET WITH NO
SIGNIFICANT WEATHER AND/OR OBSTRUCTIONS TO VISIBILITY.

* THESE STATIONS ARE NOT UNDER NWS QUALITY CONTROL. THEY ALSO MAY NOT
  REPORT WEATHER SUCH AS PRECIPITATION OR FOG.

ILZ001-002-007-009-015-016-024-261800-
NORTHWEST ILLINOIS

CITY           SKY/WX    TMP DP  RH WIND       PRES   REMARKS
MOLINE         RAIN      67  57  70 SE13      29.75R
STERLING*      PTSUNNY   70  58  65 SE7       29.79R
SAVANNA*       CLOUDY    67  59  73 SE7       29.79R
$$

ILZ003-004-008-010-011-017-018-261800-
NORTH CENTRAL ILLINOIS

CITY           SKY/WX    TMP DP  RH WIND       PRES   REMARKS
ROCKFORD       CLOUDY    69  56  62 SE12      29.81S
FREEPORT*      CLOUDY    65  56  71 E9        29.82R
ROCHELLE*      CLOUDY    68  56  67 E16       29.80R
DE KALB*       CLOUDY    68  57  66 SE13G18   29.81S
PERU*          CLOUDY    71  57  61 SE13      29.80R
$$

ILZ005-006-012>014-019>023-261800-
NORTHEAST ILLINOIS

CITY           SKY/WX    TMP DP  RH WIND       PRES   REMARKS
CHICAGO-OHARE  CLOUDY    68  54  60 E14       29.81F
CHICAGO-MIDWAY CLOUDY    67  55  65 E14       29.81F
AURORA         CLOUDY    71  57  61 E15       29.81R
LANSING*       CLOUDY    70  60  70 SE10      29.82F
JOLIET*        CLOUDY    71  59  64 E10       29.80R
WAUKEGAN       CLOUDY    59  53  80 E9        29.84F
DUPAGE AIRPORT PTSUNNY   70  58  65 SE9       29.81R
KANKAKEE*      PTSUNNY   74  56  53 SE13      29.80S
WHEELING       CLOUDY    63  55  75 E9        29.83F
MORRIS*        PTSUNNY   70  56  60 E10G18    29.78R
ROMEOVILLE*    CLOUDY    71  61  69 SE8       29.81R
NORTHERLY ISL    N/A     57  52  83 NE5         N/A
$$

LMZ740>746-261800-
SOUTHERN LAKE MICHIGAN

STATION/POSITION SKY/WX   TEMP    WIND        PRES    VSBY  WAVE
                          AIR SEA DIR/SP/G                  HT/PER
                          (F)     (DEG/KT/KT) (MB)    (MI)  (FT/S)
SOUTHERN BUOY              47 46  160/  4/  6 1012.2          1/ 4
WILMETTE HARBOR            50 52                N/A           1/ 4
HARRISON CRIB              54      90/ 13/ 14   N/A
BURNHAM HARBOR             57      50/  4/  6   N/A
CALUMET HARBOR             58      60/  8/ 12 1009.8F
BURNS HARBOR               59      70/ 10/ 11 1010.8F
MICHIGAN CITY              57      40/  8/  8   N/A
MICHIGAN CITY 6N           56 53   60/ 10/ 12   N/A           1/ 5
ST. JOSEPH                 55 55   60/  4/  4 1011.3          1/ 4
$$

ILZ025>027-034>036-040-047-049-050-058-095>099-261800-
WEST-CENTRAL ILLINOIS

CITY           SKY/WX    TMP DP  RH WIND       PRES   REMARKS
QUINCY         CLOUDY    74  66  76 S9        29.74R
GALESBURG*     CLOUDY    70  60  69 S8        29.75F
MACOMB*        CLOUDY    69  62  77 S10       29.77S
JACKSONVILLE*  SUNNY     72  62  70 SW6       29.77S
PITTSFIELD*    CLOUDY    74  65  73 CALM      29.76F
$$

ILZ028>032-037-038-041>044-048-051>054-059>061-261800-
CENTRAL ILLINOIS

CITY           SKY/WX    TMP DP  RH WIND       PRES   REMARKS
PONTIAC        CLOUDY    73  59  60 SE20      29.80R
BLOOMINGTON    CLOUDY    74  61  63 SE16G25   29.81R
DECATUR        SUNNY     76  63  64 S16       29.77R
PEORIA         PTSUNNY   73  61  65 S13G21    29.79R
LACON*         PTSUNNY   75  59  58 SE14      29.78R
LINCOLN*       SUNNY     76  64  65 SW9       29.78R
SPRINGFIELD    MOSUNNY   76  65  68 SW8       29.78S
TAYLORVILLE    SUNNY     76  64  66 S14       29.77R
$$

ILZ033-039-045-046-055>057-062-063-261800-
EAST-CENTRAL ILLINOIS

CITY           SKY/WX    TMP DP  RH WIND       PRES   REMARKS
CHAMPAIGN      MOSUNNY   75  62  64 SE18      29.79R
RANTOUL*       CLOUDY    73  63  70 SE17      29.80R
MATTOON        SUNNY     76  64  66 SE16G25   29.77F
PARIS*         MOSUNNY   74  63  69 SE16      29.82F
$$

ILZ079-100>102-261800-
SOUTHWEST ILLINOIS

CITY           SKY/WX    TMP DP  RH WIND       PRES   REMARKS
ALTON          MOSUNNY   77  63  61 S14       29.77R
BELLEVILLE     SUNNY     78  65  64 SW8       29.77R
CAHOKIA*       SUNNY     80  62  54 SW8       29.75S HX  81
SPARTA*        SUNNY     75  63  64 S14       29.78F
$$

ILZ064>066-069>071-074>076-080>082-084>086-088>090-092>094-261800-
SOUTH-CENTRAL ILLINOIS

CITY           SKY/WX    TMP DP  RH WIND       PRES   REMARKS
CARBONDALE     SUNNY     77  63  61 S14       29.80S
CAIRO*         SUNNY     81  58  45 S21G29    29.79F HX  81
EFFINGHAM*     CLOUDY    76  66  69 SE9       29.79S
MT. VERNON       N/A     79  64  60 S15G23    29.78R HX  81
CENTRALIA*     SUNNY     78  65  63 S20G26    29.78R HX  80
SALEM*         SUNNY     80  64  57 S15       29.78R HX  82
METROPOLIS*    SUNNY     81  57  43 S14G21    29.83S HX  81
$$

ILZ067-068-072-073-078-083-087-091-261800-
SOUTHEAST ILLINOIS

CITY           SKY/WX    TMP DP  RH WIND       PRES   REMARKS
LAWRENCEVILLE  MOSUNNY   75  63  66 SE14G24   29.80F
FLORA*         SUNNY     79  65  61 SE14G21   29.79S HX  81
FAIRFIELD*     PTSUNNY   77  63  62 SE12      29.78F
HARRISBURG*    CLOUDY    78  61  56 S17G23    29.81F
ROBINSON*      SUNNY     74  62  65 SE17      29.80F
CARMI*         MOSUNNY   77  63  61 S23       29.79F
$$

ABBREVIATIONS USED IN REMARKS
   TC - TEMPERATURE IN CELSIUS
  WCI - WIND CHILL INDEX
   HX - HEAT INDEX
  VSB - VISIBILITY
$$





USA.gov is the U.S. government's official web portal to all federal, state and local government web resources and services.